Flag for Canada Weather past 2 weeks in Lloydminster, Alberta, Canada

Now
3 °F

Overcast.


Feels Like: -14 °F
Forecast: -3 / 21 °F
Wind: 13 mph from West

Location: Lloydminister

Current Time: Feb 28, 2015 at 8:03:27 AM

Latest Report: Feb 28, 2015 at 7:00 AM


Visibility: 15 mi

Pressure: 30.26 "Hg

Humidity: 85%

Dew point: 0 °F

Location of LloydminsterLocation

Historic Weather in Lloydminster — Graph

°F

Lloydminster temperature yesterday

Maximum temperature yesterday: 10 °F (at 3:00 PM)
Minimum temperature yesterday: -6 °F (at 12:00 AM)
Average temperature yesterday: 0 °F

Past Weeks' High & Low Weather Summary

 TemperatureHumidityPressure
High39 °F (Feb 23, 1:00 PM)93% (Feb 13, 1:00 PM)30.81 "Hg (Feb 13, 1:00 PM)
Low-15 °F (Feb 17, 5:00 AM)54% (Feb 21, 1:00 PM)29.84 "Hg (Feb 19, 4:00 PM)
Average10 °F79%30.32 "Hg
* Reported Feb 13 7:00 AM — Feb 28 7:00 AM, Lloydminster, Weather by CustomWeather, © 2015

Note: Actual official high and low records may vary slightly from our data, if they occured in-between our weather recording intervals... More about our weather records

Advertising

Lloydminster weather history for previous 24 hours

 ConditionsComfort  
Time TempWeatherWind HumidityBarometerVisibility
7:00 AM
Sat, Feb 28
3 °FOvercast.13 mph85%30.26 "Hg15 mi
6:00 AM1 °FPassing clouds.14 mph85%30.26 "Hg9 mi
5:00 AM1 °FOvercast.15 mph78%30.26 "Hg9 mi
4:02 AM-2 °FPassing clouds.12 mph77%30.27 "Hg9 mi
3:00 AM-2 °FClear.12 mph84%30.28 "Hg9 mi
2:00 AM-2 °FPassing clouds.13 mph84%30.30 "Hg9 mi
1:00 AM-4 °FClear.13 mph84%30.31 "Hg9 mi
12:00 AM-4 °FClear.13 mph84%30.32 "Hg9 mi
11:00 PM
Fri, Feb 27
-4 °FClear.9 mph84%30.32 "Hg9 mi
10:00 PM-2 °FPassing clouds.10 mph84%30.33 "Hg15 mi
9:00 PM-4 °FPassing clouds.10 mph84%30.33 "Hg15 mi
8:00 PM-2 °FPassing clouds.9 mph84%30.34 "Hg15 mi
7:00 PM0 °FPassing clouds.9 mph78%30.34 "Hg15 mi
6:00 PM3 °FPassing clouds.8 mph78%30.33 "Hg15 mi
5:00 PM9 °FScattered clouds.9 mph72%30.32 "Hg15 mi
4:00 PM9 °FLight snow. Overcast.12 mph78%30.32 "Hg10 mi
3:00 PM10 °FLight snow. Overcast.13 mph72%30.31 "Hg8 mi
2:00 PM9 °FLight snow. Overcast.9 mph78%30.32 "Hg5 mi
1:00 PM7 °FLight snow. Overcast.8 mph78%30.32 "Hg4 mi
12:00 PM5 °FLight snow. Overcast.8 mph78%30.33 "Hg4 mi
11:00 AM3 °FLight snow. Overcast.9 mph78%30.32 "Hg4 mi
10:00 AM1 °FBroken clouds.6 mph71%30.32 "Hg15 mi
9:49 AM1 °FPartly sunny.8 mph71%30.31 "Hg15 mi
9:00 AM1 °FLight snow. Overcast.6 mph78%30.30 "Hg5 mi
8:00 AM0 °FOvercast.7 mph78%30.29 "Hg15 mi
Weather by CustomWeather, © 2015

See weather overviewHow to use our weather pages